• Processing (Info)

  • MPEC 2005-U91 : 2005 UA6

    The following Minor Planet Electronic Circular may be linked-to from your own Web pages, but must not otherwise be redistributed electronically.

    A form allowing access to any MPEC is at the bottom of this page.


    Read MPEC 2005-U90 Read MPEC 2005-U92


    M.P.E.C. 2005-U91                                Issued 2005 Oct. 29, 15:23 UT
    
         The Minor Planet Electronic Circulars contain information on unusual
             minor planets and routine data on comets.  They are published
       on behalf of Commission 20 of the International Astronomical Union by the
              Minor Planet Center, Smithsonian Astrophysical Observatory,
                              Cambridge, MA 02138, U.S.A.
    
                      Supported in part by the Brinson Foundation
                      Supported in part by the TABASGO Foundation
                 Prepared using the Tamkin Foundation Computer Network
    
                                  MPC@CFA.HARVARD.EDU
              URL http://cfa-www.harvard.edu/iau/mpc.html  ISSN 1523-6714
    
                                       2005 UA6
    
    Observations:
         K05U06A* C2005 10 28.25388 02 47 56.87 +11 04 26.6          17.7   EU091704
         K05U06A  C2005 10 28.26868 02 47 59.57 +11 07 18.2          17.9   EU091704
         K05U06A  C2005 10 28.28072 02 48 01.77 +11 09 37.9          17.9   EU091704
         K05U06A  C2005 10 28.29253 02 48 03.87 +11 11 53.6          18.2   EU091704
         K05U06A  C2005 10 28.30442 02 48 06.00 +11 14 09.6          18.0   EU091704
         K05U06A  C2005 10 29.08931 02 50 52.95 +13 29 21.7                 EU091J95
         K05U06A  C2005 10 29.09063 02 50 53.16 +13 29 34.0                 EU091J95
         K05U06A  C2005 10 29.09199 02 50 53.38 +13 29 46.8          17.9 R EU091J95
         K05U06A  C2005 10 29.26453 02 51 32.75 +13 57 06.4          17.4 R EU091854
         K05U06A  C2005 10 29.26543 02 51 32.88 +13 57 14.2          17.4 R EU091854
         K05U06A  C2005 10 29.26634 02 51 33.03 +13 57 22.4          17.5 R EU091854
         K05U06A  C2005 10 29.29113 02 51 34.26 +14 00 51.5          17.4 R EU091734
         K05U06A  C2005 10 29.29156 02 51 34.33 +14 00 55.4          17.4 R EU091734
         K05U06A  C2005 10 29.29242 02 51 34.43 +14 01 03.0          17.4 R EU091734
         K05U06A  C2005 10 29.29285 02 51 34.49 +14 01 07.1          17.5 R EU091734
         K05U06A 5C2005 10 29.32269 02 51 41.64 +14 05 45.2          17.4 R EU091673
         K05U06A 5C2005 10 29.32791 02 51 42.37 +14 06 31.9                 EU091673
         K05U06A 5C2005 10 29.33229 02 51 42.96 +14 07 11.0                 EU091673
         K05U06A 5C2005 10 29.33681 02 51 43.57 +14 07 51.1                 EU091673
         K05U06A 2C2005 10 29.40358 02 51 50.94 +14 17 38.9          17.9 R EU091H06
         K05U06A 2C2005 10 29.40607 02 51 51.30 +14 18 01.1          17.6 R EU091H06
    
    Observer details:
    673 Table Mountain Observatory, Wrightwood.  Observer J. Young.  0.6-m f/16
        Cassegrain + CCD.
    704 Lincoln Laboratory ETS, New Mexico.  Observers M. Bezpalko, L. Manguso,
        D. Torres, R. Kracke, A. Milner, H. Love.  Measurers J. Stuart, R. Sayer,
        J. Evans, J. Kommers.  1.0-m f/2.15 reflector + CCD.
    734 Farpoint Observatory.  Observer D. Tibbets.  0.7-m reflector + CCD.
    854 Sabino Canyon Observatory, Tucson.  Observer J. E. McGaha.  0.36-m f/10.0
        Schmidt-Cassegrain + CCD.
    H06 New Mexico Skies Observatory.  Observer R. Hutsebaut.  0.25-m reflector
        + CCD.
    J95 Great Shefford.  Observer P. Birtwhistle.  0.40-m f/6.0 Schmidt-Cassegrain
        + CCD.
    
    Orbital elements:
    2005 UA6
    Epoch 2005 Oct. 17.0 TT = JDT 2453660.5                 MPC
    M   6.57408              (2000.0)            P               Q
    n   0.26335626     Peri.  310.26206     +0.97562098     +0.21084837
    a   2.4104990      Node    37.68098     -0.15865899     +0.86930422
    e   0.6197406      Incl.    5.71618     -0.15162790     +0.44704938
    P   3.74           H   23.3           G   0.15
    From 21 observations 2005 Oct. 28-29.
    
    Ephemeris:
    2005 UA6                 a,e,i = 2.41, 0.62, 6                   q = 0.9166
    Date    TT    R. A. (2000) Decl.     Delta      r     Elong.  Phase     V
    2005 10 27    02 41.98   +06 18.4    0.0443   1.037   168.9    10.6    17.3
    2005 11 01    02 58.12   +19 08.9    0.0785   1.070   170.7     8.6    18.5
    2005 11 06    03 04.37   +23 56.8    0.116    1.105   170.7     8.3    19.4
    2005 11 11    03 07.49   +26 16.5    0.154    1.143   171.1     7.7    20.1
    2005 11 16    03 09.40   +27 32.0    0.195    1.182   170.4     8.0    20.7
    2005 11 21    03 10.89   +28 14.1    0.238    1.222   168.4     9.3    21.2
    2005 11 26    03 12.37   +28 36.9    0.284    1.264   165.4    11.3    21.8
    
    Brian G. Marsden             (C) Copyright 2005 MPC           M.P.E.C. 2005-U91
    

    Read MPEC 2005-U90 Read MPEC 2005-U92


    MPEC number:

    Enter an MPEC number in one of the following forms:

    • 1997-B01 (the full form)
    • J97B01 (the packed version of the full form)
    • B01 (the abbreviated form)